Japanese version Home page |
Updated on May 8, 2006 |
Profile
|
Orbital ElementsEpoch 2005 July 9.0 TT = JDT 2453560.5 T 2005 July 14.51738 TT MPC q 3.1938499 (2000.0) P Q z +0.0000316 Peri. 294.23173 -0.70607715 -0.68296599 +/-0.0000179 Node 155.86517 -0.35890727 +0.57292970 e 0.9998991 Incl. 152.76602 -0.61044298 +0.45311038
|
Finding Charts
|
Magnitudes Graphm1 = 11.5 + 5 log d + 10.0 log r
|
The orbital elements are published on M.P.E.C. 2006-C64.
|